This is the latest recevied weather packets stored in our database for station/object K7OWW-2. If no packets are shown the sender has not sent any weather packets the latest 10 day(s).
| Time | Temp. | Humidity | Pressure | Rain* | Wind** | Luminosity | Snow |
|---|---|---|---|---|---|---|---|
| 1788413327 | 6.11° C | 98% | 1011.8 hPa | 0.25 mm | - | - | - |
| 1788412727 | 6.11° C | 98% | 1011.3 hPa | 0 mm | - | - | - |
| 1788412127 | 6.11° C | 97% | 1011.1 hPa | 0.25 mm | - | - | - |
| 1788411527 | 6.11° C | 97% | 1011.2 hPa | 0.25 mm | - | - | - |
| 1788410927 | 6.11° C | 97% | 1011 hPa | 0.25 mm | - | - | - |
| 1788410327 | 6.67° C | 97% | 1011.1 hPa | 0.51 mm | - | - | - |
| 1788409727 | 6.67° C | 97% | 1011.3 hPa | 0.51 mm | - | - | - |
| 1788409127 | 6.67° C | 97% | 1011.2 hPa | 1.02 mm | - | - | - |
| 1788408829 | 6.67° C | 97% | 1011.2 hPa | 1.27 mm | - | - | - |
| 1788408527 | 6.67° C | 97% | 1011.4 hPa | 1.02 mm | - | - | - |
| 1788407927 | 6.67° C | 97% | 1011.3 hPa | 1.52 mm | - | - | - |
| 1788407327 | 6.67° C | 97% | 1011.2 hPa | 2.79 mm | - | - | - |
| 1788407029 | 6.67° C | 97% | 1011.1 hPa | 3.05 mm | - | - | - |
| 1788406727 | 6.67° C | 97% | 1011.1 hPa | 3.05 mm | - | - | - |
| 1788406127 | 6.67° C | 97% | 1010.9 hPa | 3.56 mm | - | - | - |
| 1788404927 | 7.22° C | 97% | 1011.2 hPa | 3.81 mm | - | - | - |
| 1788404327 | 7.78° C | 97% | 1011.2 hPa | 3.56 mm | - | - | - |
| 1788403727 | 7.78° C | 97% | 1011 hPa | 2.79 mm | - | - | - |
| 1788403429 | 7.78° C | 97% | 1011 hPa | 2.54 mm | - | - | - |
| 1788403127 | 7.78° C | 97% | 1011 hPa | 2.54 mm | - | - | - |
| 1788402527 | 7.78° C | 97% | 1011 hPa | 2.29 mm | - | - | - |
| 1788401927 | 7.78° C | 97% | 1010.8 hPa | 2.29 mm | - | - | - |
| 1788401629 | 7.78° C | 97% | 1010.8 hPa | 1.78 mm | - | - | - |
| 1788401327 | 7.78° C | 97% | 1010.9 hPa | 1.52 mm | - | - | - |
| 1788400727 | 8.33° C | 97% | 1011 hPa | 1.52 mm | - | - | - |
* Rain latest hour (hover to see other rain measurements)
** Current wind speed in m/s (hover to see current wind gust speed)